Weather History for Edenton, NC

Change the Weather History Date:

Monday, December 30, 2013

  Actual Average Record
Temperature  
Mean Temperature 47 °F -  
Max Temperature 55 °F 53 °F 78 °F (1984)
Min Temperature 39 °F 35 °F 16 °F (1933)
Degree Days  
Heating Degree Days 18    
Moisture  
Dew Point 43 °F    
Average Humidity 84    
Maximum Humidity 100    
Minimum Humidity 58    
Precipitation  
Precipitation 0.00 in - - ()
Sea Level Pressure  
Sea Level Pressure 30.03 in    
Wind  
Wind Speed 3 mph (NW)    
Max Wind Speed 7 mph    
Max Gust Speed -    
Visibility 10 miles    
Events Fog    
Averages and records for this station are not official NWS values.
T = Trace of Precipitation, MM = Missing Value Source: NWS Daily Summary

Daily Weather History Graph

Daily Weather History Graph

Search for Another Location

Airport:

Trip Planner

Search our weather history database for the weather conditions in past years. The results will help you decide how hot, cold, wet, or windy it might be!

Date:

Astronomy

Dec. 30, 2013 Rise Set
Actual Time 7:16 AM EST 5:01 PM EST
Civil Twilight 6:48 AM EST 5:29 PM EST
Nautical Twilight 6:16 AM EST 6:02 PM EST
Astronomical Twilight 5:44 AM EST 6:33 PM EST
Moon 5:05 AM EST 3:31 PM EST
Length of Visible Light 10h 41m
Length of Day
9h 44m
Waning Crescent, 5% of the Moon is Illuminated
Dec 30
Waning Crescent
Jan 1
New
Jan 7
First Quarter
Jan 15
Full
Jan 24
Last Quarter

Hourly Weather History & Observations

Time (EST) Temp. Windchill Dew Point Humidity Pressure Visibility Wind Dir Wind Speed Gust Speed Precip Events Conditions
12:15 AM 50.5 °F - 49.1 °F 95% 29.92 in 10.0 mi West 5.8 mph - N/A   Clear
12:35 AM 50.2 °F - 48.9 °F 95% 29.92 in 10.0 mi West 5.8 mph - N/A   Clear
12:55 AM 49.6 °F - 47.8 °F 94% 29.92 in 10.0 mi WNW 4.6 mph - N/A   Clear
1:15 AM 49.3 °F - 47.3 °F 93% 29.92 in 10.0 mi WNW 4.6 mph - N/A   Clear
1:35 AM 48.7 °F - 46.8 °F 93% 29.92 in 10.0 mi WNW 4.6 mph - N/A   Clear
1:55 AM 48.4 °F - 46.4 °F 93% 29.92 in 10.0 mi WNW 4.6 mph - N/A   Clear
2:15 AM 48.2 °F - 46.4 °F 93% 29.93 in 10.0 mi West 5.8 mph - N/A   Clear
2:35 AM 47.8 °F - 46.2 °F 94% 29.92 in 10.0 mi WNW 5.8 mph - N/A   Clear
2:55 AM 47.7 °F - 46.2 °F 95% 29.93 in 10.0 mi WNW 6.9 mph - N/A   Clear
3:15 AM 47.3 °F - 45.7 °F 94% 29.93 in 10.0 mi WNW 4.6 mph - N/A   Clear
3:35 AM 47.1 °F - 45.7 °F 95% 29.94 in 10.0 mi WNW 4.6 mph - N/A   Clear
3:55 AM 46.2 °F - 45.0 °F 95% 29.94 in 10.0 mi Calm Calm - N/A   Clear
4:15 AM 46.0 °F 43.9 °F 44.8 °F 95% 29.95 in 10.0 mi WNW 4.6 mph - N/A   Clear
4:35 AM 45.7 °F 44.4 °F 44.4 °F 95% 29.95 in 10.0 mi WNW 3.5 mph - N/A   Clear
4:55 AM 43.7 °F - 42.8 °F 97% 29.95 in 10.0 mi Calm Calm - N/A   Clear
5:15 AM 42.8 °F - 42.1 °F 97% 29.96 in 10.0 mi Calm Calm - N/A   Clear
5:35 AM 42.8 °F - 42.3 °F 98% 29.96 in 10.0 mi Calm Calm - N/A   Clear
5:55 AM 42.3 °F - 42.1 °F 99% 29.97 in 10.0 mi Calm Calm - N/A   Clear
6:15 AM 42.3 °F - 42.1 °F 99% 29.97 in 7.0 mi Calm Calm - N/A   Clear
6:35 AM 40.3 °F - 40.3 °F 100% 29.98 in 4.0 mi Calm Calm - N/A   Clear
6:55 AM 40.3 °F - 40.3 °F 100% 29.99 in 0.8 mi Calm Calm - N/A   Mist
7:15 AM 39.4 °F - 39.4 °F 100% 29.99 in 0.5 mi Calm Calm - N/A Fog Fog
7:35 AM 40.3 °F - 40.3 °F 100% 30.01 in 7.0 mi Calm Calm - N/A   Clear
7:55 AM 39.2 °F - 39.2 °F 100% 30.02 in 10.0 mi Calm Calm - N/A   Clear
8:15 AM 40.3 °F - 40.3 °F 100% 30.03 in 10.0 mi Calm Calm - N/A   Clear
8:35 AM 42.1 °F - 42.1 °F 100% 30.04 in 10.0 mi Calm Calm - N/A   Clear
8:55 AM 45.7 °F - 45.7 °F 100% 30.04 in 10.0 mi Calm Calm - N/A   Clear
9:15 AM 47.8 °F - 46.6 °F 95% 30.06 in 10.0 mi West 3.5 mph - N/A   Clear
9:35 AM 49.1 °F - 45.3 °F 87% 30.07 in 10.0 mi West 4.6 mph - N/A   Clear
9:55 AM 50.0 °F - 45.3 °F 84% 30.07 in 10.0 mi WNW 4.6 mph - N/A   Clear
10:15 AM 50.9 °F - 45.1 °F 81% 30.06 in 10.0 mi West 3.5 mph - N/A   Clear
10:35 AM 52.0 °F - 45.5 °F 79% 30.06 in 10.0 mi WNW 3.5 mph - N/A   Clear
10:55 AM 52.7 °F - 43.7 °F 71% 30.07 in 10.0 mi West 3.5 mph - N/A   Clear
11:15 AM 53.1 °F - 43.2 °F 69% 30.07 in 10.0 mi West 5.8 mph - N/A   Clear
11:35 AM 52.9 °F - 43.3 °F 70% 30.07 in 10.0 mi West 4.6 mph - N/A   Clear
11:55 AM 54.7 °F - 41.9 °F 62% 30.06 in 10.0 mi WNW 5.8 mph - N/A   Clear
12:15 PM 54.7 °F - 40.8 °F 60% 30.05 in 10.0 mi WNW 5.8 mph - N/A   Clear
12:35 PM 54.7 °F - 41.5 °F 61% 30.05 in 10.0 mi West 5.8 mph - N/A   Clear
12:55 PM 55.0 °F - 40.8 °F 59% 30.03 in 10.0 mi West 3.5 mph - N/A   Clear
1:15 PM 54.7 °F - 40.1 °F 58% 30.02 in 10.0 mi West 3.5 mph - N/A   Clear
1:35 PM 54.3 °F - 41.4 °F 62% 30.03 in 10.0 mi Calm Calm - N/A   Clear
1:55 PM 53.8 °F - 41.7 °F 64% 30.03 in 10.0 mi WNW 3.5 mph - N/A   Clear
2:15 PM 53.6 °F - 43.0 °F 67% 30.04 in 10.0 mi Calm Calm - N/A   Clear
2:35 PM 53.2 °F - 43.7 °F 70% 30.04 in 10.0 mi Calm Calm - N/A   Clear
2:55 PM 53.6 °F - 43.0 °F 67% 30.04 in 10.0 mi Calm Calm - N/A   Clear
3:15 PM 54.0 °F - 43.2 °F 67% 30.05 in 10.0 mi Calm Calm - N/A   Clear
3:55 PM 53.8 °F - 43.3 °F 68% 30.05 in 10.0 mi Calm Calm - N/A   Clear
4:15 PM 52.9 °F - 42.8 °F 69% 30.07 in 10.0 mi NW 6.9 mph - N/A   Clear
4:35 PM 52.0 °F - 42.6 °F 70% 30.07 in 10.0 mi NNW 3.5 mph - N/A   Clear
4:55 PM 51.8 °F - 41.9 °F 69% 30.08 in 10.0 mi Calm Calm - N/A   Clear
5:15 PM 51.1 °F - 41.0 °F 68% 30.07 in 10.0 mi NNW 5.8 mph - N/A   Clear
5:35 PM 50.7 °F - 40.5 °F 68% 30.07 in 10.0 mi NNW 3.5 mph - N/A   Clear
5:55 PM 50.5 °F - 40.5 °F 68% 30.08 in 10.0 mi Calm Calm - N/A   Clear
6:15 PM 50.0 °F - 40.3 °F 69% 30.08 in 10.0 mi Calm Calm - N/A   Clear
6:35 PM 48.4 °F - 41.5 °F 77% 30.10 in 10.0 mi Calm Calm - N/A   Clear
6:55 PM 47.3 °F - 42.8 °F 84% 30.09 in 10.0 mi Calm Calm - N/A   Clear
7:15 PM 46.8 °F - 42.8 °F 86% 30.10 in 10.0 mi Calm Calm - N/A   Clear
7:35 PM 46.4 °F - 43.0 °F 88% 30.09 in 10.0 mi Calm Calm - N/A   Clear
7:55 PM 45.5 °F - 42.8 °F 90% 30.10 in 10.0 mi Calm Calm - N/A   Clear
8:15 PM 45.9 °F - 42.8 °F 89% 30.10 in 10.0 mi Calm Calm - N/A   Clear
8:35 PM 45.1 °F - 42.8 °F 91% 30.11 in 10.0 mi Calm Calm - N/A   Clear
8:55 PM 45.7 °F 43.4 °F 42.4 °F 88% 30.12 in 10.0 mi NE 4.6 mph - N/A   Clear
9:15 PM 45.7 °F 43.4 °F 41.9 °F 87% 30.12 in 10.0 mi NNE 4.6 mph - N/A   Clear
9:35 PM 45.5 °F 44.2 °F 41.5 °F 86% 30.12 in 10.0 mi NNE 3.5 mph - N/A   Clear
9:55 PM 44.8 °F 43.3 °F 41.4 °F 88% 30.13 in 10.0 mi NNE 3.5 mph - N/A   Clear
10:15 PM 44.6 °F 42.2 °F 41.4 °F 88% 30.13 in 10.0 mi NNE 4.6 mph - N/A   Clear
10:35 PM 44.2 °F 41.8 °F 41.0 °F 88% 30.13 in 10.0 mi NE 4.6 mph - N/A   Clear
10:55 PM 44.6 °F 43.1 °F 41.0 °F 87% 30.12 in 10.0 mi NNE 3.5 mph - N/A   Clear
11:15 PM 43.9 °F 42.3 °F 40.6 °F 88% 30.13 in 10.0 mi North 3.5 mph - N/A   Clear
11:35 PM 43.5 °F 40.9 °F 40.6 °F 90% 30.13 in 10.0 mi North 4.6 mph - N/A   Scattered Clouds
11:55 PM 43.5 °F 39.4 °F 41.0 °F 91% 30.12 in 10.0 mi NNE 6.9 mph - N/A   Overcast